QPF
0.00 0.00 0.00 0.00 0.00 0.00 0.00 0.00 0.00 0.00 0.00 0.00 0.00 0.00 0.00 0.00 0.00 0.00 0.00 0.00 0.00 0.00 0.00 0.00 0.00 0.00 0.00 0.00 0.00 0.00 0.00 0.00 0.00 0.00 0.00 0.00 0.00 0.00 0.00 0.00 0.00 0.00 0.00 0.00
0.00 0.00 0.00 0.00 0.00 0.00 0.00 0.00 0.00 0.00 0.00 0.00 0.00 0.00 0.00 0.00 0.00 0.00 0.00 0.00 0.00 0.00 0.00 0.00 0.00 0.00 0.00 0.00 0.00 0.00 0.00 0.00 0.00 0.00 0.00 0.00 0.00 0.00 0.00 0.00 0.00 0.00 0.00 0.00
0.00 0.00 0.00 0.00 0.00 0.00 0.00 0.00 0.00 0.00 0.00 0.00 0.00 0.00 0.00 0.00 0.00 0.00 0.00 0.00 0.00 0.00 0.00 0.00 0.00 0.00 0.00 0.00 0.00 0.00 0.00 0.00 0.00 0.00 0.00 0.00 0.00 0.00 0.00 0.00 0.00 0.00 0.00 0.00
0.00 0.00 0.00 0.00 0.00 0.00 0.00 0.00 0.00 0.00 0.00 0.00 0.00 0.00 0.00 0.00 0.00 0.00 0.00 0.00 0.00 0.00 0.00 0.00 0.00 0.00 0.00 0.00 0.00 0.00 0.00 0.00 0.00 0.00 0.00 0.00 0.00 0.00 0.00 0.00 0.00 0.00 0.00 0.00
0.00 0.00 0.00 0.00 0.00 0.00 0.00 0.00 0.00 0.00 0.00 0.00 0.00 0.00 0.00 0.00 0.00 0.00 0.00 0.00 0.00 0.00 0.00 0.00 0.00 0.00 0.00 0.00 0.00 0.00 0.00 0.00 0.00 0.00 0.00 0.00 0.00 0.00 0.00 0.00 0.00 0.00 0.00 0.00
0.00 0.00 0.00 0.00 0.00 0.00 0.00 0.00 0.00 0.00 0.00 0.00 0.00 0.00 0.00 0.00 0.00 0.00 0.00 0.00 0.00 0.00 0.00 0.00 0.00 0.00 0.00 0.00 0.00 0.00 0.00 0.00 0.00 0.00 0.00 0.00 0.00 0.00 0.00 0.00 0.00 0.00 0.00 0.00
0.00 0.00 0.00 0.00 0.00 0.00 0.00 0.00 0.00 0.00 0.00 0.00 0.00 0.00 0.00 0.00 0.00 0.00 0.00 0.00 0.00 0.00 0.00 0.00 0.00 0.00 0.00 0.00 0.00 0.00 0.00 0.00 0.00 0.00 0.00 0.00 0.00 0.00 0.00 0.00 0.00 0.00 0.00 0.00
0.00 0.00 0.00 0.00 0.00 0.00 0.00 0.00 0.00 0.00 0.00 0.00 0.00 0.00 0.00 0.00 0.00 0.00 0.00 0.00 0.00 0.00 0.00 0.00 0.00 0.00 0.00 0.00 0.00 0.00 0.00 0.00 0.00 0.00 0.00 0.00 0.00 0.00 0.00 0.00 0.00 0.00 0.00 0.00
0.00 0.00 0.00 0.00 0.00 0.00 0.00 0.00 0.00 0.00 0.00 0.00 0.00 0.00 0.00 0.00 0.00 0.00 0.00 0.00 0.00 0.00 0.00 0.00 0.00 0.00 0.00 0.00 0.00 0.00 0.00 0.00 0.00 0.00 0.00 0.00 0.00 0.00 0.00 0.00 0.01 0.00 0.00 0.00
0.00 0.00 0.00 0.00 0.00 0.00 0.00 0.00 0.00 0.00 0.00 0.00 0.00 0.00 0.00 0.00 0.00 0.00 0.00 0.00 0.00 0.00 0.00 0.00 0.00 0.00 0.00 0.00 0.00 0.00 0.00 0.00 0.00 0.00 0.00 0.00 0.00 0.00 0.00 0.02 0.04 0.02 0.01 0.01
0.00 0.00 0.00 0.00 0.00 0.00 0.00 0.00 0.00 0.00 0.00 0.00 0.00 0.00 0.00 0.00 0.00 0.00 0.00 0.00 0.00 0.00 0.00 0.00 0.00 0.00 0.00 0.00 0.00 0.00 0.00 0.00 0.00 0.00 0.00 0.00 0.00 0.00 0.00 0.01 0.04 0.03 0.02 0.02
0.00 0.00 0.00 0.00 0.00 0.00 0.00 0.00 0.00 0.00 0.00 0.00 0.00 0.00 0.00 0.00 0.00 0.00 0.00 0.00 0.00 0.00 0.00 0.00 0.00 0.00 0.00 0.00 0.00 0.00 0.00 0.00 0.00 0.00 0.00 0.00 0.00 0.00 0.00 0.00 0.01 0.01 0.02 0.02
0.00 0.00 0.00 0.00 0.00 0.00 0.00 0.00 0.00 0.00 0.00 0.00 0.00 0.00 0.00 0.00 0.00 0.00 0.00 0.00 0.00 0.00 0.00 0.00 0.00 0.00 0.00 0.00 0.00 0.00 0.00 0.00 0.00 0.00 0.00 0.00 0.00 0.00 0.00 0.00 0.00 0.00 0.00 0.01
0.00 0.00 0.00 0.00 0.00 0.00 0.00 0.00 0.00 0.00 0.00 0.00 0.00 0.00 0.00 0.00 0.00 0.00 0.00 0.00 0.00 0.00 0.00 0.00 0.00 0.00 0.00 0.00 0.00 0.00 0.00 0.00 0.00 0.00 0.00 0.00 0.00 0.00 0.00 0.00 0.00 0.00 0.00 0.00
0.00 0.00 0.00 0.00 0.00 0.00 0.00 0.00 0.00 0.00 0.00 0.00 0.00 0.00 0.00 0.00 0.00 0.00 0.00 0.00 0.00 0.00 0.00 0.00 0.00 0.00 0.00 0.00 0.00 0.00 0.00 0.00 0.00 0.00 0.00 0.00 0.00 0.00 0.00 0.00 0.00 0.00 0.00 0.00
0.00 0.00 0.00 0.00 0.00 0.00 0.00 0.00 0.00 0.00 0.00 0.00 0.00 0.00 0.00 0.00 0.00 0.00 0.00 0.00 0.00 0.00 0.00 0.00 0.00 0.00 0.00 0.00 0.00 0.00 0.00 0.00 0.00 0.00 0.00 0.00 0.00 0.00 0.00 0.00 0.00 0.00 0.01 0.01
0.00 0.00 0.00 0.00 0.00 0.00 0.00 0.00 0.00 0.00 0.00 0.00 0.00 0.00 0.00 0.00 0.00 0.00 0.00 0.00 0.00 0.00 0.00 0.00 0.00 0.00 0.00 0.00 0.00 0.00 0.00 0.00 0.00 0.00 0.00 0.00 0.00 0.00 0.00 0.00 0.01 0.01 0.01 0.01
0.00 0.00 0.00 0.00 0.00 0.00 0.00 0.00 0.00 0.00 0.00 0.00 0.00 0.00 0.00 0.00 0.00 0.00 0.00 0.00 0.00 0.00 0.00 0.00 0.00 0.00 0.00 0.00 0.00 0.00 0.00 0.00 0.00 0.00 0.00 0.00 0.00 0.00 0.00 0.01 0.01 0.01 0.01 0.00
0.00 0.00 0.00 0.00 0.00 0.00 0.00 0.00 0.00 0.00 0.00 0.00 0.00 0.00 0.00 0.00 0.00 0.00 0.00 0.00 0.00 0.00 0.00 0.00 0.00 0.00 0.00 0.00 0.00 0.00 0.00 0.00 0.00 0.00 0.00 0.00 0.00 0.00 0.00 0.01 0.01 0.01 0.01 0.01
0.00 0.00 0.00 0.00 0.00 0.00 0.00 0.00 0.00 0.00 0.00 0.00 0.00 0.00 0.00 0.00 0.00 0.00 0.00 0.00 0.00 0.00 0.00 0.00 0.00 0.00 0.00 0.00 0.00 0.00 0.00 0.00 0.00 0.00 0.00 0.00 0.00 0.00 0.00 0.00 0.01 0.01 0.01 0.01
0.00 0.00 0.00 0.00 0.00 0.00 0.00 0.00 0.00 0.00 0.00 0.00 0.00 0.00 0.00 0.00 0.00 0.00 0.00 0.00 0.00 0.00 0.00 0.00 0.00 0.00 0.00 0.00 0.00 0.00 0.00 0.00 0.00 0.00 0.00 0.00 0.00 0.00 0.00 0.00 0.00 0.01 0.01 0.01
0.00 0.00 0.00 0.00 0.00 0.00 0.00 0.00 0.00 0.00 0.00 0.00 0.00 0.00 0.00 0.00 0.00 0.00 0.00 0.00 0.00 0.00 0.00 0.00 0.00 0.00 0.00 0.00 0.00 0.00 0.00 0.00 0.00 0.00 0.00 0.00 0.00 0.00 0.00 0.00 0.01 0.01 0.01 0.01
0.00 0.00 0.00 0.00 0.00 0.00 0.00 0.00 0.00 0.00 0.00 0.00 0.00 0.00 0.00 0.00 0.00 0.00 0.00 0.00 0.00 0.00 0.00 0.00 0.00 0.00 0.00 0.00 0.00 0.00 0.00 0.00 0.00 0.00 0.00 0.00 0.00 0.00 0.00 0.00 0.00 0.01 0.01 0.01
0.00 0.00 0.00 0.00 0.00 0.00 0.00 0.00 0.00 0.00 0.00 0.00 0.00 0.00 0.00 0.00 0.00 0.00 0.00 0.00 0.00 0.00 0.00 0.00 0.00 0.00 0.00 0.00 0.00 0.00 0.00 0.00 0.00 0.00 0.00 0.00 0.00 0.00 0.00 0.00 0.00 0.00 0.01 0.01
0.00 0.00 0.00 0.00 0.00 0.00 0.00 0.00 0.00 0.00 0.00 0.00 0.00 0.00 0.00 0.00 0.00 0.00 0.00 0.00 0.00 0.00 0.00 0.00 0.00 0.00 0.00 0.00 0.00 0.00 0.00 0.00 0.00 0.00 0.00 0.00 0.00 0.00 0.00 0.00 0.00 0.01 0.01 0.01
0.00 0.00 0.00 0.00 0.00 0.00 0.00 0.00 0.00 0.00 0.00 0.00 0.00 0.00 0.00 0.00 0.00 0.00 0.00 0.00 0.00 0.00 0.00 0.00 0.00 0.00 0.00 0.00 0.00 0.00 0.00 0.00 0.00 0.00 0.00 0.00 0.00 0.00 0.00 0.00 0.00 0.00 0.01 0.01
0.00 0.00 0.00 0.00 0.00 0.00 0.00 0.00 0.00 0.00 0.00 0.00 0.00 0.00 0.00 0.00 0.00 0.00 0.00 0.00 0.00 0.00 0.00 0.00 0.00 0.00 0.00 0.00 0.00 0.00 0.00 0.00 0.00 0.00 0.00 0.00 0.00 0.00 0.00 0.00 0.00 0.00 0.00 0.01
MSLP
1028.93 1028.65 1028.37 1028.13 1027.96 1027.92 1028.00 1028.25 1028.66 1029.23 1029.95 1030.81 1031.77 1032.80 1033.85 1034.87 1035.81 1036.63 1037.31 1037.82 1038.15 1038.31 1038.31 1038.18 1037.94 1037.59 1037.18 1036.70 1036.18 1035.61 1035.01 1034.39 1033.73 1033.06 1032.37 1031.66 1030.91 1030.10 1029.23 1028.26 1027.20 1026.04 1024.81 1023.53
1029.36 1028.94 1028.48 1028.04 1027.69 1027.49 1027.47 1027.67 1028.10 1028.75 1029.60 1030.61 1031.73 1032.88 1034.02 1035.07 1036.01 1036.79 1037.40 1037.82 1038.08 1038.19 1038.17 1038.04 1037.83 1037.53 1037.17 1036.74 1036.25 1035.70 1035.10 1034.45 1033.78 1033.09 1032.39 1031.68 1030.95 1030.17 1029.33 1028.41 1027.39 1026.28 1025.07 1023.83
1029.84 1029.26 1028.61 1027.98 1027.44 1027.08 1026.95 1027.11 1027.56 1028.30 1029.27 1030.41 1031.67 1032.94 1034.15 1035.24 1036.17 1036.90 1037.44 1037.79 1037.98 1038.05 1038.01 1037.90 1037.72 1037.47 1037.17 1036.79 1036.33 1035.80 1035.20 1034.55 1033.86 1033.16 1032.45 1031.75 1031.04 1030.31 1029.53 1028.68 1027.73 1026.69 1025.56 1024.37
1030.25 1029.52 1028.70 1027.89 1027.18 1026.69 1026.48 1026.60 1027.08 1027.88 1028.96 1030.23 1031.60 1032.97 1034.24 1035.36 1036.28 1036.97 1037.45 1037.74 1037.88 1037.91 1037.87 1037.77 1037.63 1037.44 1037.18 1036.84 1036.42 1035.90 1035.31 1034.64 1033.94 1033.23 1032.52 1031.84 1031.16 1030.48 1029.78 1029.01 1028.16 1027.21 1026.17 1025.07
1030.43 1029.59 1028.64 1027.70 1026.88 1026.30 1026.04 1026.16 1026.66 1027.53 1028.69 1030.06 1031.51 1032.95 1034.28 1035.41 1036.31 1036.97 1037.41 1037.66 1037.77 1037.78 1037.75 1037.67 1037.57 1037.42 1037.20 1036.91 1036.50 1036.00 1035.40 1034.72 1034.01 1033.28 1032.58 1031.91 1031.27 1030.64 1030.01 1029.33 1028.58 1027.74 1026.81 1025.80
1030.27 1029.36 1028.35 1027.35 1026.49 1025.88 1025.63 1025.77 1026.32 1027.24 1028.47 1029.90 1031.42 1032.89 1034.23 1035.37 1036.26 1036.89 1037.31 1037.53 1037.63 1037.65 1037.63 1037.58 1037.51 1037.40 1037.22 1036.95 1036.56 1036.06 1035.45 1034.76 1034.04 1033.30 1032.59 1031.94 1031.33 1030.75 1030.18 1029.58 1028.92 1028.18 1027.35 1026.45
1029.69 1028.78 1027.79 1026.82 1026.00 1025.45 1025.25 1025.46 1026.07 1027.05 1028.32 1029.78 1031.31 1032.79 1034.12 1035.24 1036.11 1036.72 1037.12 1037.35 1037.45 1037.49 1037.50 1037.48 1037.44 1037.36 1037.21 1036.95 1036.57 1036.07 1035.45 1034.76 1034.02 1033.28 1032.57 1031.92 1031.33 1030.79 1030.26 1029.72 1029.13 1028.47 1027.73 1026.92
1028.68 1027.85 1026.95 1026.10 1025.42 1025.00 1024.92 1025.23 1025.92 1026.95 1028.24 1029.70 1031.21 1032.65 1033.94 1035.02 1035.86 1036.46 1036.86 1037.09 1037.22 1037.29 1037.32 1037.34 1037.33 1037.27 1037.14 1036.89 1036.51 1036.01 1035.40 1034.70 1033.97 1033.23 1032.52 1031.88 1031.29 1030.76 1030.26 1029.75 1029.20 1028.60 1027.92 1027.18
1027.32 1026.63 1025.91 1025.27 1024.79 1024.57 1024.66 1025.10 1025.88 1026.95 1028.25 1029.67 1031.12 1032.50 1033.72 1034.74 1035.54 1036.12 1036.52 1036.77 1036.93 1037.03 1037.10 1037.15 1037.16 1037.12 1037.00 1036.76 1036.39 1035.90 1035.29 1034.61 1033.88 1033.16 1032.46 1031.82 1031.24 1030.70 1030.20 1029.69 1029.16 1028.57 1027.92 1027.23
1025.75 1025.24 1024.76 1024.38 1024.17 1024.19 1024.50 1025.09 1025.96 1027.07 1028.34 1029.71 1031.07 1032.34 1033.48 1034.43 1035.17 1035.73 1036.13 1036.40 1036.59 1036.73 1036.83 1036.91 1036.94 1036.91 1036.79 1036.56 1036.20 1035.73 1035.15 1034.49 1033.79 1033.09 1032.41 1031.78 1031.19 1030.65 1030.12 1029.59 1029.04 1028.44 1027.80 1027.14
1024.11 1023.81 1023.60 1023.52 1023.61 1023.91 1024.43 1025.19 1026.15 1027.27 1028.51 1029.79 1031.04 1032.20 1033.23 1034.10 1034.79 1035.32 1035.72 1036.01 1036.23 1036.40 1036.53 1036.62 1036.67 1036.64 1036.53 1036.30 1035.96 1035.51 1034.96 1034.35 1033.70 1033.04 1032.40 1031.78 1031.19 1030.63 1030.07 1029.50 1028.91 1028.28 1027.62 1026.96
1022.54 1022.47 1022.53 1022.75 1023.14 1023.71 1024.45 1025.36 1026.40 1027.53 1028.71 1029.90 1031.04 1032.08 1032.99 1033.78 1034.41 1034.92 1035.32 1035.63 1035.88 1036.07 1036.22 1036.32 1036.37 1036.34 1036.22 1036.00 1035.68 1035.26 1034.76 1034.21 1033.62 1033.01 1032.41 1031.82 1031.24 1030.66 1030.07 1029.45 1028.80 1028.13 1027.44 1026.76
1021.14 1021.28 1021.60 1022.10 1022.77 1023.59 1024.52 1025.56 1026.65 1027.78 1028.91 1030.00 1031.02 1031.94 1032.76 1033.47 1034.06 1034.55 1034.96 1035.29 1035.55 1035.76 1035.92 1036.03 1036.06 1036.02 1035.89 1035.68 1035.37 1034.99 1034.54 1034.05 1033.53 1032.99 1032.44 1031.89 1031.32 1030.73 1030.11 1029.45 1028.76 1028.03 1027.30 1026.59
1019.92 1020.25 1020.81 1021.56 1022.47 1023.49 1024.58 1025.71 1026.85 1027.96 1029.03 1030.03 1030.95 1031.78 1032.52 1033.16 1033.73 1034.21 1034.62 1034.97 1035.26 1035.48 1035.64 1035.74 1035.76 1035.70 1035.56 1035.34 1035.05 1034.70 1034.31 1033.88 1033.42 1032.95 1032.46 1031.95 1031.41 1030.82 1030.18 1029.49 1028.76 1027.99 1027.21 1026.47
1018.87 1019.38 1020.14 1021.09 1022.18 1023.36 1024.57 1025.76 1026.92 1028.01 1029.02 1029.95 1030.78 1031.54 1032.22 1032.84 1033.39 1033.88 1034.31 1034.68 1034.98 1035.21 1035.38 1035.46 1035.46 1035.38 1035.22 1035.00 1034.72 1034.40 1034.05 1033.68 1033.29 1032.88 1032.46 1031.99 1031.48 1030.91 1030.27 1029.56 1028.80 1028.00 1027.19 1026.41
1017.94 1018.60 1019.52 1020.63 1021.87 1023.15 1024.43 1025.67 1026.82 1027.88 1028.84 1029.71 1030.49 1031.21 1031.86 1032.46 1033.01 1033.52 1033.97 1034.36 1034.69 1034.93 1035.09 1035.16 1035.14 1035.05 1034.88 1034.65 1034.38 1034.09 1033.78 1033.45 1033.12 1032.78 1032.40 1031.99 1031.51 1030.96 1030.33 1029.63 1028.86 1028.05 1027.23 1026.42
1017.08 1017.88 1018.93 1020.16 1021.48 1022.83 1024.15 1025.39 1026.53 1027.56 1028.48 1029.31 1030.06 1030.75 1031.40 1032.00 1032.57 1033.10 1033.58 1034.00 1034.34 1034.59 1034.75 1034.81 1034.79 1034.68 1034.51 1034.28 1034.03 1033.76 1033.49 1033.21 1032.93 1032.64 1032.31 1031.94 1031.50 1030.99 1030.38 1029.70 1028.95 1028.14 1027.32 1026.50
1016.24 1017.18 1018.34 1019.65 1021.02 1022.40 1023.72 1024.94 1026.06 1027.06 1027.95 1028.76 1029.49 1030.18 1030.83 1031.45 1032.04 1032.60 1033.10 1033.54 1033.90 1034.16 1034.33 1034.40 1034.37 1034.27 1034.11 1033.90 1033.67 1033.44 1033.20 1032.97 1032.73 1032.48 1032.20 1031.86 1031.46 1030.98 1030.42 1029.77 1029.05 1028.27 1027.47 1026.66
1015.43 1016.49 1017.74 1019.10 1020.49 1021.86 1023.16 1024.36 1025.44 1026.41 1027.28 1028.07 1028.80 1029.49 1030.15 1030.79 1031.41 1031.99 1032.51 1032.96 1033.34 1033.61 1033.79 1033.87 1033.87 1033.79 1033.66 1033.49 1033.31 1033.11 1032.92 1032.74 1032.54 1032.33 1032.08 1031.78 1031.42 1030.98 1030.46 1029.85 1029.18 1028.44 1027.67 1026.88
1014.68 1015.85 1017.16 1018.54 1019.92 1021.27 1022.52 1023.68 1024.72 1025.66 1026.51 1027.29 1028.02 1028.72 1029.40 1030.05 1030.68 1031.27 1031.80 1032.27 1032.65 1032.94 1033.14 1033.25 1033.28 1033.25 1033.17 1033.06 1032.94 1032.80 1032.67 1032.53 1032.38 1032.20 1031.99 1031.72 1031.40 1030.99 1030.51 1029.95 1029.33 1028.64 1027.91 1027.15
1014.02 1015.27 1016.61 1017.99 1019.35 1020.64 1021.84 1022.95 1023.95 1024.86 1025.69 1026.47 1027.20 1027.91 1028.59 1029.26 1029.89 1030.47 1031.01 1031.47 1031.86 1032.16 1032.38 1032.53 1032.61 1032.64 1032.64 1032.61 1032.56 1032.50 1032.44 1032.35 1032.25 1032.11 1031.93 1031.69 1031.39 1031.02 1030.58 1030.07 1029.50 1028.86 1028.18 1027.45
1013.48 1014.78 1016.13 1017.47 1018.78 1020.01 1021.15 1022.20 1023.15 1024.04 1024.86 1025.63 1026.37 1027.08 1027.77 1028.43 1029.05 1029.63 1030.15 1030.61 1030.99 1031.31 1031.56 1031.75 1031.89 1032.00 1032.08 1032.14 1032.18 1032.21 1032.21 1032.19 1032.14 1032.04 1031.89 1031.68 1031.40 1031.06 1030.65 1030.18 1029.65 1029.07 1028.43 1027.74
1013.08 1014.38 1015.70 1016.98 1018.21 1019.37 1020.44 1021.43 1022.35 1023.21 1024.02 1024.80 1025.54 1026.26 1026.95 1027.60 1028.21 1028.77 1029.27 1029.72 1030.10 1030.43 1030.70 1030.94 1031.15 1031.34 1031.51 1031.66 1031.80 1031.91 1031.99 1032.04 1032.03 1031.97 1031.84 1031.65 1031.40 1031.07 1030.69 1030.26 1029.76 1029.22 1028.62 1027.96
1012.78 1014.05 1015.29 1016.49 1017.63 1018.70 1019.70 1020.64 1021.52 1022.37 1023.18 1023.96 1024.72 1025.44 1026.13 1026.78 1027.38 1027.92 1028.41 1028.84 1029.22 1029.55 1029.86 1030.14 1030.41 1030.67 1030.93 1031.17 1031.40 1031.59 1031.75 1031.85 1031.89 1031.87 1031.76 1031.59 1031.34 1031.04 1030.67 1030.26 1029.80 1029.28 1028.71 1028.08
1012.55 1013.73 1014.87 1015.96 1016.99 1017.97 1018.90 1019.79 1020.65 1021.49 1022.32 1023.11 1023.89 1024.63 1025.33 1025.98 1026.57 1027.10 1027.57 1027.99 1028.37 1028.72 1029.05 1029.37 1029.70 1030.03 1030.35 1030.68 1030.98 1031.25 1031.46 1031.62 1031.70 1031.69 1031.61 1031.44 1031.21 1030.91 1030.56 1030.16 1029.72 1029.23 1028.68 1028.08
1012.31 1013.36 1014.37 1015.34 1016.26 1017.15 1018.02 1018.87 1019.72 1020.56 1021.40 1022.22 1023.03 1023.79 1024.51 1025.17 1025.76 1026.29 1026.77 1027.19 1027.57 1027.93 1028.29 1028.64 1029.01 1029.40 1029.78 1030.16 1030.52 1030.84 1031.11 1031.30 1031.41 1031.42 1031.35 1031.19 1030.96 1030.67 1030.33 1029.94 1029.51 1029.04 1028.52 1027.93
1011.98 1012.88 1013.75 1014.59 1015.41 1016.22 1017.03 1017.86 1018.70 1019.55 1020.42 1021.27 1022.11 1022.91 1023.65 1024.33 1024.95 1025.49 1025.97 1026.40 1026.80 1027.18 1027.56 1027.94 1028.35 1028.77 1029.20 1029.62 1030.02 1030.38 1030.67 1030.89 1031.01 1031.04 1030.98 1030.83 1030.60 1030.31 1029.98 1029.60 1029.19 1028.73 1028.23 1027.67
Thickness
5623 5622 5616 5610 5603 5592 5578 5567 5557 5563 5556 5544 5515 5489 5467 5447 5429 5411 5394 5377 5361 5345 5328 5312 5298 5285 5273 5261 5249 5238 5226 5215 5204 5193 5181 5169 5155 5140 5123 5108 5098 5092 5093 5097
5622 5622 5612 5608 5604 5591 5580 5569 5560 5558 5551 5534 5504 5479 5458 5440 5425 5407 5390 5374 5358 5342 5325 5309 5295 5283 5271 5259 5248 5236 5223 5212 5202 5192 5181 5169 5155 5140 5125 5111 5101 5097 5097 5101
5613 5607 5614 5613 5613 5593 5584 5574 5567 5559 5550 5512 5493 5478 5456 5437 5422 5404 5388 5372 5355 5338 5321 5306 5293 5281 5268 5257 5246 5234 5223 5212 5202 5192 5181 5169 5156 5142 5128 5115 5105 5100 5100 5104
5595 5605 5614 5626 5613 5602 5591 5585 5570 5564 5541 5518 5499 5473 5452 5434 5416 5400 5386 5369 5351 5334 5319 5304 5291 5279 5267 5256 5245 5235 5225 5214 5204 5194 5183 5172 5160 5146 5133 5120 5109 5103 5102 5105
5584 5591 5599 5615 5610 5600 5589 5585 5576 5555 5529 5501 5477 5458 5441 5431 5414 5398 5384 5366 5349 5333 5318 5304 5291 5279 5267 5256 5246 5236 5228 5217 5207 5197 5187 5177 5165 5152 5139 5127 5116 5108 5105 5105
5573 5590 5601 5626 5609 5597 5587 5577 5574 5550 5524 5495 5476 5467 5456 5431 5413 5397 5381 5364 5348 5332 5317 5303 5290 5279 5268 5257 5247 5239 5230 5220 5210 5201 5191 5180 5169 5157 5145 5134 5124 5115 5109 5107
5572 5576 5603 5619 5598 5592 5582 5593 5573 5548 5526 5501 5488 5478 5456 5430 5411 5396 5380 5364 5347 5332 5317 5303 5291 5279 5268 5257 5248 5240 5231 5222 5213 5205 5195 5185 5174 5163 5152 5142 5131 5122 5115 5111
5565 5566 5601 5612 5592 5591 5596 5581 5562 5542 5525 5506 5485 5464 5446 5428 5410 5394 5377 5363 5347 5331 5317 5303 5291 5279 5268 5258 5250 5241 5233 5225 5217 5209 5200 5191 5180 5172 5162 5152 5142 5132 5124 5118
5607 5628 5638 5615 5610 5605 5588 5573 5556 5537 5518 5498 5477 5459 5443 5425 5407 5392 5376 5361 5346 5332 5318 5304 5292 5280 5270 5261 5252 5244 5236 5228 5221 5214 5206 5197 5189 5181 5173 5164 5155 5145 5135 5128
5614 5633 5633 5616 5608 5599 5586 5573 5554 5535 5515 5497 5477 5458 5440 5424 5407 5391 5376 5361 5347 5333 5319 5305 5293 5282 5272 5264 5255 5247 5239 5232 5226 5218 5212 5204 5197 5189 5182 5174 5166 5156 5146 5138
5621 5632 5628 5622 5608 5597 5582 5566 5549 5531 5513 5496 5478 5457 5438 5423 5408 5391 5378 5362 5347 5333 5320 5307 5295 5284 5275 5267 5258 5250 5243 5236 5230 5224 5216 5209 5202 5195 5189 5181 5174 5166 5157 5149
5645 5649 5635 5634 5615 5597 5580 5564 5548 5528 5507 5491 5477 5458 5439 5424 5408 5392 5377 5362 5349 5336 5323 5309 5297 5287 5278 5270 5262 5254 5247 5241 5235 5229 5221 5214 5206 5200 5194 5188 5182 5175 5168 5161
5656 5649 5635 5627 5609 5595 5582 5565 5546 5530 5511 5489 5471 5456 5441 5424 5409 5393 5378 5364 5351 5338 5325 5311 5300 5289 5281 5273 5266 5258 5251 5244 5239 5232 5225 5219 5213 5206 5200 5196 5190 5183 5177 5171
5644 5632 5624 5612 5600 5589 5574 5557 5540 5523 5505 5488 5470 5454 5439 5423 5408 5392 5378 5365 5352 5339 5326 5314 5302 5293 5284 5276 5269 5262 5254 5248 5243 5235 5228 5222 5216 5211 5206 5200 5196 5190 5185 5179
5639 5633 5626 5610 5594 5579 5564 5547 5530 5513 5496 5480 5466 5451 5437 5423 5408 5393 5379 5365 5353 5340 5328 5316 5305 5296 5288 5280 5272 5265 5258 5252 5247 5240 5233 5227 5222 5216 5211 5206 5201 5197 5193 5188
5634 5620 5608 5598 5587 5572 5557 5544 5533 5515 5497 5479 5463 5450 5437 5423 5408 5393 5379 5366 5353 5342 5330 5318 5308 5299 5290 5283 5275 5268 5261 5256 5251 5244 5237 5231 5226 5221 5216 5211 5208 5204 5200 5197
5620 5611 5601 5592 5583 5571 5562 5553 5541 5522 5500 5481 5466 5449 5433 5419 5405 5392 5380 5367 5355 5344 5332 5321 5311 5302 5293 5285 5278 5270 5263 5257 5252 5245 5239 5234 5230 5224 5219 5215 5211 5208 5204 5201
5648 5638 5623 5612 5596 5577 5563 5550 5537 5520 5502 5485 5464 5446 5433 5422 5411 5397 5382 5367 5354 5343 5334 5324 5314 5304 5296 5288 5281 5273 5265 5258 5253 5247 5242 5238 5234 5227 5222 5218 5214 5211 5208 5205
5641 5631 5619 5609 5598 5582 5567 5551 5535 5518 5500 5481 5463 5449 5436 5425 5412 5397 5382 5367 5355 5346 5337 5326 5317 5308 5298 5290 5283 5275 5267 5260 5254 5249 5244 5240 5234 5229 5225 5221 5217 5214 5211 5208
5634 5623 5613 5602 5591 5578 5565 5549 5532 5514 5497 5480 5463 5447 5433 5421 5409 5397 5382 5371 5362 5352 5340 5328 5318 5309 5301 5292 5285 5276 5268 5261 5255 5249 5245 5241 5236 5231 5227 5223 5219 5216 5213 5209
5627 5616 5606 5596 5584 5572 5561 5546 5529 5512 5495 5479 5465 5451 5437 5423 5409 5396 5383 5373 5364 5352 5341 5331 5321 5312 5303 5295 5287 5278 5270 5263 5256 5250 5245 5240 5236 5232 5228 5224 5220 5217 5214 5210
5620 5610 5600 5589 5578 5565 5553 5540 5526 5511 5493 5478 5464 5449 5435 5421 5408 5396 5387 5379 5368 5356 5344 5333 5323 5314 5305 5297 5288 5279 5272 5264 5258 5252 5246 5240 5235 5231 5227 5223 5220 5217 5213 5210
5614 5605 5594 5584 5573 5560 5545 5533 5521 5507 5493 5479 5465 5451 5439 5427 5414 5401 5391 5380 5368 5358 5346 5335 5325 5316 5308 5297 5289 5281 5273 5266 5259 5253 5246 5240 5235 5230 5225 5222 5219 5215 5213 5210
5605 5596 5586 5574 5562 5549 5537 5527 5515 5503 5490 5478 5466 5454 5441 5427 5413 5404 5396 5386 5372 5359 5348 5337 5327 5319 5310 5298 5289 5281 5274 5267 5260 5254 5247 5241 5235 5230 5225 5221 5218 5215 5212 5211
5596 5587 5576 5566 5556 5549 5536 5521 5506 5493 5481 5470 5459 5448 5439 5430 5419 5407 5393 5384 5373 5361 5348 5338 5329 5320 5310 5300 5291 5283 5275 5268 5261 5255 5248 5242 5236 5231 5226 5221 5217 5214 5212 5210
5586 5580 5573 5566 5559 5547 5532 5517 5505 5493 5481 5469 5456 5445 5435 5425 5414 5404 5392 5381 5371 5361 5349 5338 5329 5321 5310 5301 5292 5284 5277 5269 5262 5255 5249 5243 5237 5231 5226 5222 5218 5215 5212 5211
5571 5565 5557 5549 5543 5536 5526 5516 5507 5495 5484 5474 5460 5447 5435 5423 5412 5401 5390 5380 5369 5360 5349 5339 5329 5320 5311 5302 5294 5286 5278 5271 5264 5257 5251 5245 5238 5232 5227 5223 5219 5216 5214 5212